Regional Weather Roundup
Issued by NWS Northern Indiana

Home | Current Version | Previous Version | Graphics & Text | Print | Product List | Glossary On
Versions: 1 2 3 4 5 6 7 8 9 10 11 12 13 14 15 16 17 18 19 20 21 22 23 24 25 26 27 28 29 30 31 32 33 34 35 36 37 38 39 40 41 42 43 44 45 46 47 48 49 50
000
ASUS43 KIWX 251210
RWRIWX

KIWX WEATHER ROUNDUP
NATIONAL WEATHER SERVICE NORTHERN INDIANA
700 AM EST THU DEC 25 2014

NOTE: "FAIR" INDICATES FEW OR NO CLOUDS BELOW 12,000 FEET WITH NO
SIGNIFICANT WEATHER AND/OR OBSTRUCTIONS TO VISIBILITY.

* THESE STATIONS ARE NOT UNDER NWS QUALITY CONTROL. THEY ALSO MAY NOT
  REPORT WEATHER SUCH AS PRECIPITATION OR FOG.

INZ001>027-251300-
NORTHERN INDIANA

CITY           SKY/WX    TMP DP  RH WIND       PRES   REMARKS
GARY*          CLOUDY    36  27  69 W8        29.86R
VALPARAISO     CLOUDY    34  29  82 W10       29.87R WCI  26
6HR MIN TEMP:  34; 6HR MAX TEMP:  36;

MICHIGAN CITY* CLOUDY    34  30  86 W12       29.86R WCI  25
LAPORTE*       CLOUDY    36  32  85 W13G18    29.86R
6HR MIN TEMP:  36; 6HR MAX TEMP:  38;

KNOX*          CLOUDY    34  28  76 W12G20    29.86R WCI  26
6HR MIN TEMP:   9; 6HR MAX TEMP:  81;

SOUTH BEND     NOT AVBL
GOSHEN         CLOUDY    36  32  85 W17G24    29.83R
6HR MIN TEMP:  36; 6HR MAX TEMP:  37; 6HR PCP: TRACE;

MONTICELLO*    CLOUDY    35  31  85 W10G18    29.91R WCI  27
6HR MIN TEMP:  34; 6HR MAX TEMP:  36;

LOGANSPORT*    CLOUDY    34  30  86 W14G24    29.91R WCI  24
ROCHESTER*     CLOUDY    36  34  93 W12G18    29.89R
WARSAW*        CLOUDY    36  32  87 W12G20    29.86R
ANGOLA*        CLOUDY    36  32  87 W9        29.80R
FORT WAYNE     DRIZZLE   36  33  89 W18       29.87R
6HR MIN TEMP:  36; 6HR MAX TEMP:  37; 6HR PCP: TRACE;

HUNTINGTON*    CLOUDY    35  33  92 W12G21    29.87R WCI  27
6HR MIN TEMP:  34; 6HR MAX TEMP:  36;

PERU/GRISSOM   CLOUDY    35  35 100 W15       29.90R WCI  25
6HR MIN TEMP:  35; 6HR MAX TEMP:  36; 6HR PCP:  0.01;

MARION*        CLOUDY    35  32  88 W17       29.91R WCI  24
6HR MIN TEMP:  22; 6HR MAX TEMP:  54;


$$
INZ028>050-251300-
CENTRAL INDIANA

CITY           SKY/WX    TMP DP  RH WIND       PRES   REMARKS
LAFAYETTE      CLOUDY    35  31  85 W9        29.92R WCI  28
6HR MIN TEMP:  35; 6HR MAX TEMP:  36; 6HR PCP: TRACE;

KOKOMO*        CLOUDY    36  28  75 W22       29.90R
6HR MIN TEMP:  36; 6HR MAX TEMP:  36;

MUNCIE*        CLOUDY    36  31  82 W13       29.91R
6HR MIN TEMP:  35; 6HR MAX TEMP:  37; 6HR PCP:  0.01;

INDIANAPOLIS   CLOUDY    34  31  88 SW13      29.94R WCI  25
6HR MIN TEMP:  34; 6HR MAX TEMP:  34; 6HR PCP:  0.01;


$$
MIZ043>046-050>051-056>058-064>065-071>073-077>080-251300-
SOUTHWEST LOWER MICHIGAN

CITY           SKY/WX    TMP DP  RH WIND       PRES   REMARKS
BATTLE CREEK   CLOUDY    37  32  82 W13       29.78R
6HR MIN TEMP:  36; 6HR MAX TEMP:  37; 6HR PCP:  0.01;

BENTON HARBOR  CLOUDY    36  30  79 W14G23    29.82R
6HR MIN TEMP:  36; 6HR MAX TEMP:  37;

COLDWATER*     CLOUDY    35  33  92 W12       29.79R WCI  27
6HR MIN TEMP:  35; 6HR MAX TEMP:  36;

HILLSDALE*     CLOUDY    36  35  96 W13G18    29.77R
6HR MIN TEMP:  35; 6HR MAX TEMP:  36;

HOLLAND        CLOUDY    39  29  67 W16G25    29.78R
6HR MIN TEMP:  39; 6HR MAX TEMP:  40; 6HR PCP: TRACE;

GRAND RAPIDS   CLOUDY    37  33  85 W13       29.75R
6HR MIN TEMP:  36; 6HR MAX TEMP:  37; 6HR PCP: TRACE;

KALAMAZOO      CLOUDY    37  32  82 W12       29.79R
6HR MIN TEMP:  36; 6HR MAX TEMP:  37; 6HR PCP:  0.02;

STURGIS*       CLOUDY    36  34  93 SW12      29.80R
THREE RIVERS*  CLOUDY    37  32  84 W7G16     29.81R
6HR MIN TEMP:  36; 6HR MAX TEMP:  37;


$$
OHZ001>008-015>018-024>025-251300-
NORTHWEST OHIO

CITY           SKY/WX    TMP DP  RH WIND       PRES   REMARKS
WAUSEON*       MOCLDY    36  36 100 W14G22    29.80R
DEFIANCE       CLOUDY    38  31  76 W9        29.85R
6HR MIN TEMP:  37; 6HR MAX TEMP:  38; 6HR PCP: TRACE;

FINDLAY        CLOUDY    38  33  82 W20       29.83R
6HR MIN TEMP:  37; 6HR MAX TEMP:  39; 6HR PCP: TRACE;

TOLEDO EXPRESS LGT RAIN  36  34  93 W20G28    29.81R
6HR MIN TEMP:  36; 6HR MAX TEMP:  37; 6HR PCP: TRACE;

TOLEDO METCALF CLOUDY    38  33  82 W18       29.82R
6HR MIN TEMP:  38; 6HR MAX TEMP:  39;

LIMA           CLOUDY    38  33  82 W15       29.85R
6HR MIN TEMP:  37; 6HR MAX TEMP:  39; 6HR PCP:  0.01;


$$
AND FOR LAKE MICHIGAN COASTAL AND OPEN LAKE BUOY OBSERVATIONS

STATION/POSITION TEMP    WIND        PRES    VSBY  WAVE
                 AIR SEA DIR/SP/G                  HT/PER
                 (F)     (DEG/KT/KT) (MB)    (MI)  (FT/S)
CALUMET HARBOR    35     240/  8/ 13 1009.8R
MICHIGAN CITY     35     220/ 23/ 28   N/A
SAINT JOSEPH      38     230/ 18/ 22 1010.5R

$$
&&


USA.gov is the U.S. government's official web portal to all federal, state and local government web resources and services.